Theta_e
293 294 294 295 294 293 292 293 293 293 294 294 290 290 293 293 287 285 291 293 291 294 296 298 298 299 300 300 301 302 303 303 305 305 304 304 304 305 306 307 308 308 307 308 308 308 308 308 308 308 307 308 310 310 309 309 310 309 311 310 309 309 310 310 311 312 314 315 316 317 317 319 322 324 325 323 323 323 322 325 326 325 325 324 324 323 323
292 293 293 294 293 292 292 293 293 293 293 293 294 293 294 293 292 293 293 293 292 296 297 298 300 301 302 302 303 303 302 302 304 304 304 303 303 304 305 306 306 306 307 307 307 307 306 306 307 306 307 307 307 308 308 308 309 309 310 310 309 309 308 309 310 310 310 311 311 313 315 316 317 319 321 323 325 324 323 323 323 324 324 324 323 323 323
289 292 293 293 292 292 290 292 293 293 293 293 294 294 293 294 293 293 293 291 290 297 301 300 301 302 301 301 301 301 302 302 303 303 303 303 303 304 305 305 305 306 306 306 306 306 307 306 306 306 306 306 306 307 307 307 308 308 308 308 309 309 309 309 310 310 310 311 312 311 311 312 314 316 317 319 321 322 322 322 323 323 323 323 323 323 323
285 291 291 291 292 291 290 290 291 291 291 288 291 289 293 292 289 292 290 288 289 296 299 299 300 300 299 299 300 301 301 302 302 302 303 303 303 304 304 304 305 305 305 305 305 305 306 306 306 306 306 306 307 306 307 306 307 307 309 309 309 309 309 309 310 309 310 310 309 310 311 311 312 312 314 315 317 320 321 321 321 322 322 322 321 321 322
285 290 291 290 289 287 284 285 289 291 292 293 294 294 295 295 294 288 286 288 295 297 298 297 298 299 299 299 299 300 300 301 301 302 303 303 304 304 303 303 303 304 304 305 306 305 305 305 304 305 305 306 307 307 306 307 307 307 307 307 307 308 308 308 308 309 309 310 310 310 310 311 313 314 313 313 314 316 318 320 321 320 320 320 321 321 321
284 288 289 290 284 278 280 292 296 295 292 292 291 290 293 295 295 291 294 294 297 298 298 296 297 298 298 299 301 301 302 302 303 303 303 304 303 303 303 303 303 304 305 305 306 306 306 307 306 306 308 307 308 309 308 307 307 307 306 307 307 307 308 308 308 309 309 309 309 310 311 312 312 312 312 313 314 315 316 317 318 318 319 320 320 320 321
283 287 287 281 276 278 291 295 296 296 295 294 292 293 294 295 295 296 295 296 296 297 298 298 298 299 300 301 301 302 303 303 303 303 303 303 303 303 303 303 304 305 305 305 306 306 306 306 306 307 307 307 308 307 308 307 307 307 307 307 307 308 308 308 308 309 309 310 309 310 310 310 311 312 312 313 314 315 315 316 316 316 317 317 318 319 319
286 284 283 274 277 289 293 295 295 296 294 293 292 290 293 294 295 295 294 295 296 297 297 298 299 299 300 301 301 301 302 302 303 303 302 303 303 302 302 303 304 305 305 304 305 306 306 305 305 305 305 307 307 307 307 307 307 307 307 306 307 308 308 308 309 309 310 310 310 310 310 310 311 311 312 313 314 314 314 314 316 316 316 317 317 318 319
280 282 282 281 288 288 289 289 290 292 288 290 289 284 288 295 295 295 295 295 296 296 297 298 298 299 299 297 298 301 302 303 305 304 302 302 302 302 303 303 304 305 305 305 306 306 306 306 305 306 306 306 307 307 306 307 306 306 306 306 306 307 306 307 307 309 310 310 310 311 311 310 310 310 311 312 313 314 314 314 314 314 315 316 316 317 317
286 282 280 280 280 277 283 291 295 297 297 296 294 290 286 295 295 296 295 294 295 295 296 296 297 298 295 292 294 298 300 301 302 302 303 302 302 303 303 303 303 305 305 305 304 304 304 304 305 306 307 306 306 305 305 305 305 305 305 305 305 306 306 307 308 308 309 309 309 309 310 310 310 312 312 313 313 315 314 313 313 314 314 314 315 316 315
283 281 278 277 276 280 288 289 293 295 295 298 295 288 283 292 294 295 295 294 295 295 294 295 296 294 289 290 294 296 299 299 300 299 301 301 301 301 302 302 303 303 304 304 303 303 304 304 306 307 306 305 304 304 305 305 305 304 305 305 306 306 306 307 307 308 309 309 309 309 309 310 311 311 312 312 313 314 314 314 314 314 313 313 314 315 314
283 281 279 277 281 280 288 292 293 295 295 295 290 277 279 291 293 293 293 293 294 295 295 295 294 292 287 290 293 298 299 300 300 300 300 300 301 301 302 303 303 303 302 302 302 303 303 304 306 305 306 305 305 304 304 305 305 305 305 306 307 307 307 308 308 308 309 309 310 310 310 311 311 311 312 312 313 313 314 313 312 313 313 313 312 309 306
282 281 280 282 283 287 291 291 293 294 296 291 280 276 284 291 293 294 294 293 294 295 294 295 290 295 296 296 296 298 299 299 299 300 301 300 300 300 300 300 299 300 300 300 300 302 303 304 305 305 305 305 304 304 305 305 305 306 307 307 307 307 307 307 308 308 308 309 309 310 311 310 311 311 312 312 312 312 311 312 312 311 312 308 306 304 302
281 282 279 279 283 287 291 293 295 295 289 279 279 288 292 293 293 295 295 294 295 295 294 295 294 295 296 297 298 298 299 298 299 299 300 300 300 301 301 300 300 301 301 301 301 301 302 303 303 304 304 303 303 303 303 303 305 306 307 307 307 307 307 307 308 308 309 310 311 311 311 311 310 310 311 311 311 312 311 311 311 311 307 306 305 301 299
283 282 279 277 274 285 292 291 291 292 283 284 289 291 294 294 294 293 294 294 294 294 294 295 295 295 296 296 297 297 298 298 298 299 299 299 299 299 299 299 299 299 298 299 301 302 302 303 303 303 303 302 302 302 302 303 305 306 306 307 307 307 306 306 307 308 309 309 309 311 311 311 309 308 309 310 310 311 311 311 310 309 305 303 302 299 297
278 278 276 277 284 286 293 291 284 287 290 292 293 293 291 294 294 293 293 294 294 295 294 294 295 296 295 295 296 297 297 297 298 298 299 299 298 297 298 297 297 298 298 299 300 301 302 302 303 303 303 302 301 301 302 304 305 305 306 306 306 306 307 307 308 308 308 309 309 310 309 308 308 308 308 308 309 310 310 308 307 305 303 301 299 298 296
282 280 283 287 289 291 292 293 291 292 294 294 294 293 292 292 292 294 292 292 294 295 294 294 294 293 294 295 296 296 296 296 296 296 296 297 298 298 298 298 299 299 298 299 299 300 301 302 303 303 303 302 302 302 303 305 304 305 305 305 305 305 305 306 306 307 307 307 308 308 308 308 307 307 307 308 307 308 307 305 304 302 299 298 297 296 295
289 290 290 291 291 291 292 292 293 292 293 294 294 293 291 293 294 294 292 293 294 294 295 293 293 293 294 294 294 294 295 296 297 298 297 297 298 299 299 299 299 299 299 299 299 299 300 301 302 303 303 303 302 303 304 304 305 305 305 304 304 304 304 305 305 305 305 306 307 307 307 307 307 308 308 307 306 306 304 303 302 299 297 296 296 295 294
283 278 289 289 289 290 290 291 292 294 294 293 294 293 293 293 294 293 294 294 294 294 294 293 293 293 294 294 294 295 295 295 295 295 295 296 297 298 298 299 299 299 299 299 299 300 300 301 302 302 303 303 303 303 304 304 305 305 304 303 302 303 303 303 304 304 304 304 305 306 307 307 308 308 306 306 305 302 302 301 299 298 297 296 295 294 294
281 281 287 289 290 290 291 291 290 290 292 293 293 293 294 293 294 294 294 294 294 294 293 293 293 293 294 293 293 294 294 295 295 295 296 296 297 298 298 299 299 299 299 299 299 299 299 300 301 302 302 302 303 304 304 304 304 303 302 302 302 302 302 303 303 304 304 296 300 304 305 305 305 305 304 304 302 300 299 299 298 297 296 295 293 294 294
285 287 288 288 288 289 289 291 292 292 292 292 292 293 293 293 292 293 293 294 293 293 293 294 293 293 293 294 294 294 294 294 295 295 296 296 297 298 297 298 298 298 299 299 300 300 299 301 301 302 302 304 305 306 306 305 304 302 301 301 301 302 302 302 302 302 302 303 304 303 303 302 301 301 301 299 297 297 299 298 297 295 295 294 294 294 293
281 281 284 286 280 281 287 289 290 291 292 292 292 292 292 292 292 292 292 292 293 293 294 293 293 292 293 294 294 294 294 294 295 295 295 296 296 297 298 299 300 300 300 300 300 300 301 303 302 303 303 304 305 306 305 304 303 301 300 300 300 300 301 301 301 301 301 302 302 300 299 296 293 291 288 291 296 298 295 289 289 290 292 295 297 296 295
280 285 287 288 287 287 288 289 291 292 293 293 292 291 291 292 293 294 294 294 294 294 295 296 294 294 293 294 294 293 293 294 295 296 296 296 296 297 298 298 299 299 300 301 301 301 302 302 303 303 304 304 305 304 303 303 302 301 300 298 298 299 299 299 299 300 300 299 299 297 296 295 294 292 291 290 287 288 289 289 290 289 289 289 289 290 294
287 288 288 289 287 285 288 291 292 293 295 294 293 293 294 294 294 294 294 295 293 294 294 295 296 295 295 296 296 295 295 295 296 296 297 298 298 299 299 299 299 299 299 299 300 300 301 302 302 303 303 304 304 302 301 301 300 299 298 297 296 295 295 296 295 297 297 296 296 296 296 295 293 292 291 291 291 288 287 288 288 288 288 288 289 289 289
286 290 291 292 292 292 292 293 294 294 295 294 292 293 293 293 293 294 293 293 294 293 292 292 294 295 295 295 296 295 295 295 296 296 297 297 296 297 298 298 298 298 299 300 300 301 301 301 301 302 302 303 301 300 299 299 298 297 296 296 295 295 295 295 294 294 295 295 295 294 294 293 293 292 291 291 290 290 291 288 287 287 287 288 288 288 288
292 292 292 292 292 292 293 292 292 293 293 294 293 292 293 293 292 292 293 293 292 293 292 292 292 293 294 295 295 295 296 296 294 295 298 298 298 298 298 298 299 300 300 301 301 301 301 300 301 301 302 301 300 299 299 298 298 297 296 296 296 295 295 295 295 296 296 295 294 294 293 292 292 291 292 292 291 290 290 290 290 289 288 287 287 287 287
293 293 292 290 289 289 291 289 288 292 292 293 292 292 292 292 292 292 293 293 293 293 292 293 293 294 295 295 295 296 296 297 297 296 297 297 296 296 297 298 298 298 299 300 300 299 297 299 300 301 301 300 300 300 299 298 297 296 296 296 295 291 289 290 295 294 294 294 293 293 293 293 292 292 293 292 292 291 291 290 289 289 290 291 289 288 289
292 291 291 286 285 287 289 291 292 292 292 291 291 291 291 292 292 292 292 292 292 292 293 294 294 294 294 295 295 294 295 295 294 295 295 295 296 297 297 297 297 298 298 298 298 299 299 299 300 300 299 299 300 299 299 298 297 297 297 297 295 293 294 293 294 294 294 294 294 294 293 294 294 293 293 292 292 292 292 292 291 291 290 290 290 288 287
290 290 291 291 290 291 291 291 291 290 290 292 292 292 292 291 290 290 290 292 292 292 292 292 293 293 293 293 293 293 292 292 292 293 293 294 294 294 295 295 296 296 296 296 297 298 298 299 299 299 297 299 300 300 299 299 298 298 298 299 296 295 294 294 294 295 295 295 295 296 293 293 294 294 294 295 293 294 293 294 293 293 293 293 293 291 289
290 290 290 290 291 291 290 288 289 290 290 291 290 291 291 289 288 288 289 289 289 288 289 290 290 290 290 290 290 290 289 289 289 290 290 291 291 292 293 294 294 294 294 294 295 297 297 298 299 298 297 299 300 301 301 300 300 299 299 298 299 297 296 295 296 296 296 296 295 291 294 295 295 295 294 295 295 295 295 293 294 293 294 295 292 293 291
290 290 290 290 290 290 289 289 290 289 290 290 289 288 288 287 286 286 286 287 288 288 288 288 288 288 288 288 288 289 289 290 290 290 290 290 290 291 291 291 289 288 290 292 295 296 297 298 299 298 298 300 300 301 300 300 301 301 300 298 297 289 287 289 291 296 296 295 294 295 295 296 296 295 293 294 294 295 295 294 294 293 293 296 295 294 295
289 289 289 289 289 289 289 289 288 288 288 288 287 286 285 285 284 285 285 286 286 286 286 286 286 286 287 287 287 287 288 288 287 287 287 288 288 288 287 287 287 286 289 290 292 295 297 299 297 297 299 300 300 301 302 302 302 301 299 295 296 296 292 290 293 294 295 294 295 295 294 295 295 295 294 294 294 294 294 294 294 294 295 293 294 293 292
287 286 286 287 287 288 287 288 287 287 287 286 286 287 287 286 286 286 286 286 286 286 286 285 286 286 286 286 285 285 285 285 285 285 284 285 286 286 286 286 286 286 286 287 291 296 299 296 297 298 299 300 301 300 301 301 301 300 299 298 298 297 293 292 292 295 295 294 295 296 295 295 295 296 296 294 295 294 295 294 293 294 294 297 296 293 289
287 286 287 287 287 286 286 286 287 287 287 288 287 287 286 286 286 286 286 286 285 285 284 284 285 285 285 285 284 284 284 283 283 282 283 284 284 285 285 286 286 286 286 287 287 289 294 297 297 298 299 300 300 301 301 300 299 299 299 298 297 296 295 294 294 295 295 295 295 294 296 295 296 295 294 295 295 295 294 294 294 294 293 296 297 293 286
290 290 290 290 290 289 289 287 287 287 287 287 287 286 286 286 286 286 286 285 284 284 285 285 285 285 284 284 284 284 284 283 283 282 283 283 283 284 285 285 286 285 285 285 286 286 290 293 295 296 297 297 297 298 299 299 298 297 297 297 296 296 295 295 295 295 295 295 296 296 295 295 295 293 294 296 296 296 294 293 294 294 294 294 295 295 291
291 290 290 289 289 289 289 289 289 289 288 288 287 286 285 286 286 285 285 285 285 285 284 284 284 284 284 283 283 283 283 284 284 283 283 283 284 285 285 285 285 284 284 284 285 286 288 290 287 288 292 294 294 294 294 297 298 296 296 296 295 295 295 294 296 296 296 297 295 294 294 292 294 295 295 295 296 296 295 294 292 293 294 292 293 292 292
290 289 289 288 289 289 290 290 290 289 289 288 287 286 286 286 286 286 286 286 285 284 284 284 284 283 283 284 284 284 284 284 284 284 284 284 284 284 284 284 284 283 283 282 283 286 287 289 288 288 291 293 292 293 292 287 297 299 297 296 295 295 295 296 297 298 297 296 295 294 293 293 294 295 294 296 293 292 293 293 294 294 292 292 292 291 292
290 290 289 289 289 290 290 290 290 290 289 289 288 287 287 287 287 286 286 285 285 285 285 285 284 284 284 285 284 284 284 284 284 285 285 284 283 283 282 282 282 283 282 282 284 286 287 287 287 289 291 291 291 292 291 286 288 298 297 296 296 295 295 296 297 296 296 297 296 296 294 294 294 294 294 294 293 292 291 291 291 292 292 292 292 292 291
289 290 290 290 290 290 290 290 289 289 289 288 288 288 287 287 287 287 286 285 285 285 285 285 285 285 284 284 283 284 284 284 284 284 285 285 284 282 281 282 283 283 284 285 285 285 286 287 288 289 289 290 290 291 289 287 288 298 295 296 295 295 295 295 295 294 295 295 295 294 294 293 293 292 291 293 293 291 289 290 290 291 292 292 291 292 292
290 290 290 290 289 289 288 287 287 287 288 290 289 288 288 287 287 287 286 286 286 285 285 286 285 284 284 284 284 284 284 284 284 284 284 284 284 283 282 282 283 285 285 285 285 285 285 285 287 288 288 288 289 290 289 288 289 292 294 295 295 294 294 294 295 294 294 294 293 290 292 291 290 290 290 291 291 291 292 292 292 292 292 293 293 293 292
290 290 290 290 289 290 288 287 287 288 288 288 289 289 289 288 288 287 286 286 287 287 286 286 285 285 285 285 285 285 285 285 284 284 284 283 283 281 280 279 282 284 285 285 285 285 285 285 286 287 288 289 289 288 291 289 291 291 292 292 292 293 293 293 293 292 292 292 292 293 292 292 291 291 290 291 292 292 292 292 292 292 293 292 292 291 290
290 290 290 290 289 289 289 288 289 287 287 289 288 289 289 289 288 287 287 287 288 288 287 287 285 286 286 286 286 286 286 286 285 284 283 282 282 282 281 281 283 284 284 285 285 285 285 286 286 285 287 288 289 286 286 291 291 291 290 290 291 292 292 292 292 291 292 292 293 293 292 292 291 291 291 291 290 290 290 291 291 290 291 291 291 291 291
290 289 290 290 289 290 289 288 287 287 287 288 289 288 288 288 288 287 287 287 287 287 288 288 287 286 286 286 285 284 284 285 285 285 284 283 283 283 282 283 284 284 284 285 285 285 285 285 285 285 285 285 287 285 287 291 291 290 290 290 289 290 291 291 292 292 292 292 292 292 292 292 291 290 290 290 290 290 289 290 289 289 289 289 289 289 288
290 291 291 290 290 290 291 290 289 289 287 287 289 289 288 288 288 287 286 286 286 286 286 287 288 288 288 287 285 284 283 283 283 284 283 283 283 283 284 284 284 284 284 285 285 285 285 285 285 284 284 284 285 286 292 292 291 290 290 289 289 290 290 291 291 292 291 291 291 291 290 290 289 290 290 289 289 288 287 288 288 288 287 287 288 287 287
291 291 290 291 291 291 290 290 289 288 288 288 288 288 288 288 288 288 287 287 286 285 286 286 287 287 288 288 287 285 285 285 284 283 282 281 280 280 283 283 283 284 284 284 285 285 285 285 284 284 284 284 285 286 291 291 291 291 291 291 290 289 290 290 290 291 291 291 291 290 289 289 289 289 288 287 286 287 286 286 286 287 286 286 286 285 285
290 290 290 288 290 291 291 291 291 290 289 288 288 288 288 289 288 288 288 287 287 286 286 286 286 286 287 288 289 289 287 286 286 285 284 282 281 281 283 283 283 283 283 283 284 284 284 284 283 284 284 284 285 289 290 290 289 289 290 289 290 289 289 289 289 289 289 289 289 289 289 289 288 288 288 287 286 286 285 285 286 286 286 285 285 284 284
290 290 290 290 291 292 293 292 291 290 289 289 288 288 288 289 289 289 289 289 288 288 287 287 286 287 287 287 287 287 287 286 286 286 286 285 284 284 283 283 283 283 283 283 283 283 284 284 284 284 284 285 286 289 289 290 289 289 289 288 288 288 288 289 289 289 288 288 288 287 286 287 288 288 287 286 286 286 286 285 285 285 285 284 284 283 283
291 290 291 292 292 292 293 291 290 289 290 289 289 287 289 290 289 289 289 289 288 288 288 288 287 287 287 287 287 287 287 287 284 284 287 286 285 285 284 284 284 284 283 283 283 283 283 283 283 284 284 285 287 288 288 288 288 288 288 288 288 287 287 288 288 288 287 287 287 288 288 287 287 287 286 286 285 286 286 286 286 285 284 284 284 283 283
292 291 292 292 292 292 292 290 289 289 290 290 288 289 289 290 289 289 289 290 289 289 288 288 288 288 288 287 287 287 287 287 286 284 286 286 286 285 285 284 283 284 286 286 285 284 283 283 284 284 284 285 287 287 287 287 286 286 286 286 286 286 286 286 286 287 287 287 287 287 287 286 286 286 286 286 286 286 286 286 284 283 282 283 283 283 284
292 291 290 291 291 291 290 289 289 291 291 290 290 290 290 290 289 289 288 288 287 287 288 288 288 288 288 288 288 287 287 288 287 286 285 285 286 286 285 285 285 284 284 286 286 285 284 284 284 284 285 286 286 286 286 286 286 285 285 285 285 285 285 285 284 284 286 286 287 286 286 286 285 285 285 285 284 284 284 283 283 282 280 282 283 283 283
292 291 291 291 291 291 292 291 291 291 291 290 291 290 289 289 289 287 289 289 289 287 287 288 288 288 288 287 287 287 288 287 286 286 287 286 285 284 284 285 285 284 285 285 286 285 285 284 285 285 285 285 285 285 285 285 285 284 284 285 285 285 285 285 285 285 285 285 286 286 285 285 285 285 285 284 284 284 284 283 284 284 284 284 284 284 284
292 292 292 292 291 291 292 292 292 292 291 291 291 290 289 290 289 288 287 284 288 288 287 287 286 287 288 287 286 285 286 287 287 286 285 287 286 287 285 284 286 285 285 285 285 286 286 285 284 283 284 285 285 285 284 284 284 284 284 284 284 284 283 283 284 284 284 283 283 284 284 284 284 284 285 285 285 285 285 284 284 284 284 284 284 283 284
Wind_Speed
15 16 16 15 15 15 15 17 15 17 17 17 16 11 16 13 11 15 13 14 14 11 9 10 6 8 10 9 8 8 6 6 5 5 6 5 6 6 6 5 6 7 7 6 6 6 6 6 6 5 5 7 6 5 6 5 5 5 4 4 4 4 3 3 4 4 3 3 2 3 4 4 6 7 8 9 11 6 8 10 5 8 11 11 11 13 13
16 16 16 15 16 16 17 18 17 18 18 18 18 19 18 18 18 18 17 18 17 16 15 13 10 5 9 6 8 7 10 10 10 8 6 7 6 7 7 7 7 6 7 7 7 6 5 4 5 5 4 4 5 5 5 4 3 4 3 3 3 3 3 2 2 4 5 5 5 5 5 5 6 6 5 6 8 9 10 8 10 11 11 12 11 12 13
12 15 16 16 17 17 19 19 19 19 17 18 19 18 18 18 19 20 20 16 15 13 11 12 14 12 9 10 10 11 10 9 10 10 9 8 8 7 6 5 6 6 7 6 6 5 5 5 4 4 4 4 3 3 3 3 3 4 4 4 3 3 3 3 4 4 5 5 4 6 6 6 6 7 8 6 6 6 7 9 9 11 9 10 11 12 9
11 12 15 17 17 19 21 20 19 19 18 14 14 14 14 13 12 16 14 14 12 10 12 14 15 16 16 13 12 11 9 11 12 12 11 9 7 8 7 5 5 6 6 5 5 4 4 3 4 4 3 0 3 3 3 3 3 3 3 3 3 3 4 4 4 5 5 6 6 6 6 6 7 7 7 8 7 7 7 8 8 9 10 10 11 11 10
12 13 14 15 8 10 11 12 14 17 18 20 19 18 18 18 17 14 15 14 11 13 13 13 14 14 14 15 14 13 14 13 11 11 12 11 8 8 8 6 4 4 4 5 5 2 2 3 2 4 3 2 2 2 1 0 1 1 3 3 4 4 4 5 5 5 5 6 6 6 7 7 6 6 7 8 9 8 9 9 9 9 10 10 10 11 11
10 13 12 11 4 12 11 3 5 9 14 16 18 16 17 17 15 14 14 16 14 12 11 9 13 13 12 11 10 8 7 6 7 10 10 7 5 5 4 5 4 2 2 3 4 3 1 2 3 3 2 2 1 1 2 3 3 4 5 5 4 5 5 6 6 5 6 6 6 6 6 7 7 7 8 9 8 8 8 8 9 10 10 11 11 11 12
11 11 10 11 16 13 8 5 7 3 7 8 12 12 12 13 13 12 13 13 12 13 14 14 15 15 14 10 9 9 10 10 10 9 9 6 7 7 5 3 3 1 0 1 2 1 1 3 2 2 2 1 2 3 2 3 4 4 5 5 6 6 6 7 6 6 6 6 7 7 7 7 7 8 8 8 8 8 8 9 9 9 10 10 11 11 11
10 11 9 12 13 6 5 6 3 1 2 6 7 10 11 10 8 8 11 10 9 8 7 8 9 11 11 10 9 8 10 9 10 11 8 8 8 6 4 3 4 5 3 1 0 1 2 3 2 3 3 3 3 4 4 5 5 5 5 6 6 6 6 6 7 6 6 6 7 7 8 8 8 8 8 8 9 8 9 9 9 9 9 9 10 11 11
11 9 11 14 11 14 10 9 6 6 4 6 8 10 8 6 3 7 9 9 8 10 8 7 8 8 9 8 3 4 6 6 4 4 4 5 3 3 4 5 5 4 4 3 1 1 2 3 4 4 4 4 4 5 6 6 6 6 7 7 7 7 7 7 7 6 6 7 7 8 8 8 9 9 9 9 9 8 9 9 9 9 9 9 9 9 10
9 10 11 10 10 11 8 2 5 5 5 4 4 5 10 5 2 3 7 8 9 8 7 8 7 6 8 8 4 2 1 1 5 5 2 5 4 7 7 5 6 8 4 3 3 2 4 4 5 5 4 4 5 6 7 7 7 8 8 8 8 9 9 9 8 7 7 8 8 8 8 9 9 8 8 8 8 7 9 9 9 10 9 9 8 8 8
8 10 11 10 10 8 4 3 5 5 3 2 3 4 10 5 4 5 10 9 6 6 6 7 7 8 8 3 8 8 4 2 1 3 6 6 4 4 5 6 7 6 5 5 6 6 5 5 4 4 6 7 7 7 7 7 8 9 9 9 9 10 10 9 10 9 9 9 8 9 9 9 8 9 9 8 8 7 8 9 9 9 9 9 6 4 1
10 10 10 10 6 5 3 3 3 6 3 4 3 5 3 7 4 7 9 8 7 7 6 8 8 7 7 3 2 6 8 6 5 3 6 5 6 8 8 7 6 5 6 8 8 6 6 6 6 7 7 7 7 8 8 8 8 9 9 10 10 11 11 10 10 10 9 9 9 9 9 9 8 8 8 8 8 8 8 8 8 8 8 8 5 6 7
11 12 11 8 7 5 5 4 3 3 3 4 6 11 4 4 4 5 5 7 8 8 8 8 8 6 6 5 3 4 6 8 8 8 5 7 8 9 8 7 5 7 9 8 8 8 7 8 7 6 7 7 8 8 8 8 10 9 9 10 11 11 11 11 12 12 10 10 10 9 10 9 8 8 8 8 8 9 9 8 8 7 2 8 9 8 8
10 9 9 10 5 4 8 3 4 0 3 7 7 6 1 7 7 8 9 10 9 10 10 9 9 10 10 10 9 9 9 9 9 10 10 9 8 10 10 10 8 8 8 8 9 10 9 8 8 8 8 8 9 9 9 10 10 10 11 11 11 11 12 12 12 12 11 10 10 9 9 8 9 9 8 9 9 9 8 9 7 1 7 4 7 8 8
8 9 10 8 11 3 7 7 6 1 4 2 5 7 8 7 10 10 10 9 10 10 11 11 12 12 12 12 12 12 12 13 12 12 11 12 11 10 10 11 11 10 10 10 9 9 9 9 8 8 9 10 10 10 11 12 10 10 11 11 12 13 13 13 12 12 12 12 11 8 8 9 10 10 9 9 9 9 7 6 6 4 5 6 7 9 9
8 7 7 6 4 1 4 7 5 4 7 9 10 10 11 10 10 10 10 11 10 11 12 13 14 13 12 12 12 13 14 14 13 14 13 13 12 11 11 11 12 12 12 11 11 11 10 10 9 9 10 11 11 12 13 11 11 11 12 12 12 12 11 11 12 11 12 12 11 10 11 11 11 12 11 10 9 7 6 5 4 6 6 6 8 9 9
4 6 7 2 5 7 7 8 8 8 9 9 10 11 11 12 12 12 10 12 12 12 13 14 14 14 15 16 15 15 15 14 15 16 16 15 14 13 13 13 12 12 13 13 12 12 10 11 10 10 10 12 13 14 13 12 12 13 13 13 13 12 13 12 12 12 12 12 13 12 12 12 11 10 12 11 8 5 6 4 6 7 7 8 8 8 9
9 13 12 14 12 12 10 7 8 9 12 12 13 14 13 12 13 11 12 13 14 15 15 15 15 15 17 17 16 16 17 18 18 17 17 17 17 16 15 16 15 14 14 14 14 14 13 12 11 10 11 12 14 13 13 12 12 13 13 13 13 14 13 13 14 13 14 13 13 14 12 10 11 9 9 8 6 5 6 7 8 9 8 9 9 9 8
10 8 6 8 8 8 10 13 13 13 12 13 12 13 13 12 13 14 14 14 15 16 17 17 18 18 18 19 19 19 18 18 17 17 18 17 18 17 17 15 14 14 14 13 13 14 14 12 12 11 12 12 13 13 13 12 13 13 14 15 15 15 16 14 15 14 15 13 13 12 12 10 8 5 4 3 5 6 7 9 10 10 10 10 10 9 8
8 10 11 12 13 14 13 12 11 12 12 13 13 12 13 13 14 15 16 16 17 17 17 18 18 19 18 18 18 17 17 17 17 18 18 18 17 16 17 16 14 15 14 14 14 14 13 12 12 13 13 14 13 13 13 12 12 13 14 13 15 16 16 15 14 14 14 11 9 10 9 6 4 4 4 5 5 5 6 7 10 12 11 9 8 8 8
10 12 13 10 11 12 11 12 12 13 13 14 16 16 16 17 18 18 19 18 18 18 19 19 20 21 20 20 20 20 18 18 17 17 17 17 17 16 16 16 14 14 14 15 14 15 14 13 12 12 13 12 12 12 11 10 9 11 12 15 15 17 16 15 15 13 12 10 8 7 5 6 4 4 6 7 7 7 6 5 5 6 5 6 7 6 7
8 8 8 11 11 10 12 14 15 16 16 17 18 17 17 17 18 17 19 19 17 18 18 18 18 20 20 21 20 21 19 18 18 18 17 16 16 16 15 13 14 15 15 15 15 14 12 11 12 12 12 11 10 8 8 9 11 11 13 14 15 15 14 13 12 11 8 4 5 7 8 8 7 7 12 12 7 6 5 8 12 10 7 5 5 7 7
8 11 14 13 13 14 14 15 17 17 17 16 17 17 17 17 16 16 17 16 15 15 15 15 17 18 18 19 20 20 18 18 17 17 17 16 15 15 15 15 16 16 15 14 14 13 12 12 12 11 11 10 7 6 7 8 9 10 11 11 10 9 7 5 4 3 5 7 7 8 9 9 9 9 8 10 15 13 11 10 13 15 15 17 17 13 9
13 13 12 13 13 15 16 17 17 15 14 15 16 15 15 14 15 15 16 16 17 17 17 17 16 18 19 19 18 18 20 20 19 18 17 16 15 14 14 14 14 15 15 15 14 14 12 12 11 10 9 6 4 4 4 4 6 6 5 5 3 2 3 3 4 5 5 6 7 8 8 8 10 10 9 9 8 12 14 14 14 15 15 15 15 14 13
12 13 13 13 14 15 15 15 14 13 13 13 14 15 16 16 17 16 17 17 16 17 17 18 20 17 18 19 19 18 17 17 18 18 17 15 15 14 14 15 15 15 14 13 12 11 10 10 10 9 8 2 2 3 3 3 3 3 3 3 4 5 5 6 7 7 7 6 8 8 8 9 9 10 11 9 10 8 9 13 15 14 14 13 13 12 12
13 13 15 15 14 13 12 12 12 11 13 14 15 15 16 16 17 17 17 17 15 16 17 17 18 18 17 18 16 17 15 15 17 16 14 13 13 12 13 14 14 13 13 13 12 11 10 10 9 7 4 2 4 5 6 6 6 6 6 6 6 6 9 10 9 7 6 7 8 7 7 8 8 9 9 8 7 8 7 5 7 10 11 10 10 11 10
12 11 13 13 13 11 11 12 13 15 15 15 15 15 16 16 16 16 15 15 15 16 16 16 16 17 17 16 17 15 15 14 14 13 12 13 14 13 13 12 13 13 14 12 12 11 10 8 8 7 2 6 6 6 7 7 7 7 7 7 7 7 8 7 8 9 9 9 8 8 8 8 7 7 8 8 7 7 7 6 5 5 4 4 3 5 5
9 9 9 11 12 13 14 14 15 15 15 14 14 14 15 14 14 16 17 16 15 15 15 14 13 13 13 12 12 12 12 12 12 12 12 12 12 11 11 11 12 12 12 12 12 11 10 9 8 5 7 9 8 8 8 8 8 7 6 5 6 7 7 8 9 10 9 8 8 8 7 7 7 7 7 7 7 7 7 7 7 6 4 3 3 3 5
10 10 10 10 11 11 11 12 13 13 14 13 13 13 13 13 14 14 14 13 12 10 9 11 10 10 10 11 11 11 10 10 10 11 10 10 10 11 11 12 13 14 14 14 14 13 12 11 8 6 11 9 9 9 8 6 6 6 5 4 3 3 6 7 8 9 9 10 10 9 8 7 8 7 7 6 7 6 6 5 5 5 6 7 6 4 4
11 11 11 12 12 12 12 12 12 13 13 13 13 11 10 11 11 11 11 11 11 10 10 11 10 10 10 10 10 10 10 10 10 9 9 9 9 10 11 11 12 12 13 13 13 12 12 11 8 11 11 10 8 7 6 7 6 4 4 3 2 1 3 6 8 9 8 10 9 7 7 8 7 6 6 7 6 6 5 4 4 4 5 6 6 5 5
12 13 14 13 12 10 11 11 10 11 11 12 11 11 10 10 10 9 10 10 10 10 11 10 10 11 10 10 10 10 10 9 9 8 7 8 8 8 8 9 9 9 10 10 10 10 10 9 10 11 11 8 8 5 5 5 4 4 4 4 3 5 7 8 9 1 8 8 9 8 8 8 8 8 7 5 4 4 5 3 3 2 2 4 2 4 4
13 13 13 10 10 11 11 9 10 10 8 8 9 9 9 9 10 10 10 10 10 10 10 10 10 10 10 10 10 9 8 7 6 6 6 6 6 6 5 5 5 5 6 5 6 9 9 10 12 12 10 7 6 4 2 2 2 4 4 4 4 5 4 3 3 1 8 7 7 6 6 6 6 6 6 5 3 3 3 3 2 2 1 0 3 5 3
12 14 13 13 13 12 11 10 9 9 7 8 7 7 8 8 8 9 9 10 10 10 9 9 9 9 10 10 10 9 7 5 4 6 7 7 7 7 6 4 4 2 4 5 5 4 8 11 11 11 9 8 6 4 2 3 2 3 3 4 4 4 4 4 5 5 9 7 7 6 6 5 4 4 3 3 3 2 2 2 2 1 0 4 7 6 5
10 10 11 10 9 9 9 9 8 7 6 5 6 7 9 9 8 10 10 10 10 10 9 10 10 10 10 9 9 9 9 8 7 7 9 8 8 7 6 5 4 6 8 11 12 10 7 11 11 9 8 6 5 4 5 4 4 4 4 4 4 4 3 3 2 5 7 6 6 5 5 4 4 3 3 3 3 4 3 2 2 2 2 2 5 6 5
9 9 9 7 6 6 5 5 5 5 5 6 7 8 9 8 9 10 11 10 10 10 10 10 10 10 10 10 10 10 10 11 10 10 10 10 9 9 7 6 3 6 12 13 13 11 11 11 10 11 10 8 8 7 6 6 5 4 5 4 4 5 6 5 5 4 5 5 5 4 4 4 4 6 5 5 4 4 4 5 4 4 2 2 3 4 5
8 7 5 5 4 4 3 4 5 6 6 7 7 7 6 8 10 10 12 11 10 10 10 10 10 10 10 10 10 12 14 13 12 12 11 11 10 8 6 7 7 10 11 14 13 12 12 12 15 14 10 9 8 9 8 6 6 6 5 4 3 3 5 7 5 5 4 5 7 6 5 6 7 6 6 5 6 6 4 3 3 3 3 3 3 3 1
5 5 4 3 2 3 6 6 7 7 7 7 7 7 6 8 8 8 9 9 10 10 10 10 11 12 12 12 10 10 11 11 10 9 9 9 8 8 6 5 10 11 12 13 10 9 12 11 14 15 11 9 10 9 10 10 5 4 2 4 3 3 4 5 5 5 5 5 6 5 5 5 3 6 6 6 5 4 4 3 4 3 3 2 3 2 2
4 4 3 3 3 5 6 7 7 7 6 7 6 6 7 7 7 7 7 7 8 8 7 7 7 7 7 8 9 11 11 10 10 9 7 7 7 3 7 13 12 11 12 8 7 11 11 12 16 13 11 10 10 9 10 12 8 5 4 5 5 4 3 5 5 5 5 6 6 6 4 4 4 4 5 6 6 6 5 4 4 3 2 2 2 3 2
3 3 4 5 5 6 7 7 7 6 6 6 5 5 5 5 5 5 5 4 4 5 5 6 5 5 7 9 9 10 11 10 9 8 7 6 6 12 15 13 13 13 10 8 10 11 10 11 11 13 11 10 10 9 10 11 10 5 5 6 6 6 6 6 6 7 7 7 6 6 6 6 5 4 4 5 5 6 6 5 4 4 2 2 2 2 2
4 5 6 5 5 5 5 4 4 3 3 5 5 5 4 4 5 5 6 6 5 4 4 5 5 7 7 9 9 9 10 11 11 11 10 8 9 10 10 15 16 15 14 12 12 12 13 14 13 11 10 10 9 8 8 10 10 7 6 6 7 7 7 7 6 6 6 6 6 7 6 6 6 5 6 5 5 5 4 4 4 4 4 4 4 4 4
5 6 6 5 4 4 3 3 2 2 3 5 6 6 5 5 5 5 6 6 5 5 7 7 7 6 7 7 8 8 8 9 11 12 12 11 11 11 11 12 13 12 12 10 11 11 12 13 12 11 10 9 7 6 8 8 8 7 7 7 7 7 7 7 6 6 6 6 6 6 6 6 6 6 5 5 5 5 5 5 5 4 4 3 3 4 4
5 5 5 4 3 3 2 1 2 2 2 2 4 5 6 6 6 6 6 6 6 6 6 7 7 7 7 7 7 8 8 9 10 12 14 13 12 10 11 11 11 10 12 10 10 11 12 12 10 10 8 7 5 7 6 8 8 8 8 7 7 7 7 7 7 6 6 6 6 6 6 6 6 5 5 6 6 5 5 5 5 5 4 5 6 5 5
6 6 5 4 2 2 2 3 2 3 4 4 5 5 5 5 6 6 6 6 7 7 7 7 7 7 8 8 8 8 9 8 8 9 10 11 13 13 10 9 9 12 13 10 10 10 11 10 9 8 10 9 6 8 1 7 8 8 8 8 7 7 7 7 6 6 6 6 6 6 6 6 5 4 5 3 4 5 5 5 5 5 5 5 5 5 6
6 5 5 4 3 2 1 2 2 2 3 3 4 4 4 5 5 6 6 7 7 7 7 7 7 7 7 8 8 8 8 8 8 7 7 7 9 12 12 10 9 11 14 10 10 10 10 10 9 11 13 14 13 11 7 8 7 8 8 8 8 8 7 7 7 7 7 6 6 6 6 6 5 5 5 4 4 4 4 4 4 5 5 5 6 6 6
6 5 5 4 3 1 1 2 2 2 2 2 3 3 3 4 4 5 5 6 6 7 7 7 8 7 7 6 7 7 7 7 7 7 7 7 8 8 10 10 9 9 11 11 9 9 10 9 11 14 11 12 10 9 8 8 8 8 8 8 8 7 7 7 7 7 7 6 6 6 6 6 6 5 6 5 6 5 5 5 6 6 6 6 7 7 7
7 7 6 5 5 4 3 2 2 2 2 2 2 1 1 2 3 3 4 5 5 5 6 7 7 8 8 7 5 5 8 8 8 8 8 7 7 6 7 8 9 8 10 10 9 9 8 11 13 13 13 11 8 6 7 8 7 8 8 8 8 8 7 7 7 7 7 7 6 6 6 6 6 6 5 5 5 5 5 5 6 6 6 6 6 6 6
7 7 7 7 6 5 4 4 3 3 3 4 3 2 2 2 2 3 3 4 4 5 5 6 7 7 7 8 7 6 5 6 7 7 7 7 7 6 6 6 6 7 9 9 9 8 7 9 10 11 11 9 8 8 8 8 8 8 8 8 7 7 7 7 7 7 7 7 7 6 6 6 5 6 5 5 5 5 5 5 5 5 5 5 5 6 6
7 6 7 8 7 6 7 6 5 5 5 3 2 3 2 1 1 2 2 3 3 3 4 5 5 7 7 7 7 7 7 5 5 7 6 6 6 7 7 7 6 2 8 11 10 9 9 9 10 10 10 7 8 9 9 9 8 8 8 8 8 7 6 5 6 6 5 6 6 5 5 5 5 5 4 4 4 4 4 4 5 4 4 4 5 5 6
8 8 8 8 8 7 8 7 6 5 4 3 3 2 2 1 2 2 1 1 1 1 3 4 4 4 5 6 6 6 7 7 6 5 6 6 6 6 6 6 8 9 5 6 7 7 6 7 10 9 9 10 9 8 8 8 9 8 7 7 6 7 7 6 5 4 5 5 5 5 5 5 5 4 4 4 4 3 4 4 4 5 4 3 3 4 5
6 7 7 8 7 8 8 7 6 6 4 3 3 3 2 3 4 2 1 2 3 2 2 3 3 4 4 4 4 5 5 5 5 6 6 7 6 6 6 7 7 7 7 6 7 6 6 5 8 9 9 7 9 8 8 8 8 7 6 7 7 6 7 7 6 6 6 5 5 5 4 4 4 4 4 3 3 3 3 3 2 2 5 2 2 2 3
7 8 8 6 5 7 10 9 8 6 4 4 3 2 3 4 1 1 0 1 2 1 1 3 3 3 3 4 4 4 4 5 5 4 3 5 5 6 6 5 7 6 6 6 6 6 6 7 7 7 7 7 7 8 7 7 6 6 6 6 6 5 4 5 5 4 5 4 4 4 3 4 4 3 2 2 2 2 2 2 2 2 2 3 3 3 3
7 7 8 9 9 10 9 9 8 4 4 4 4 4 4 3 2 3 4 1 4 1 1 2 3 3 3 3 4 4 5 5 3 5 4 4 2 3 4 2 4 5 5 6 5 6 5 6 8 9 9 6 5 6 7 7 6 5 5 5 5 5 5 5 5 4 4 4 3 2 4 3 3 1 2 2 1 2 2 2 2 3 3 3 4 4 3
Wind_Direction
270 272 274 278 281 282 290 282 278 278 272 265 268 254 250 261 268 274 293 299 297 299 311 310 267 245 232 251 245 231 230 206 220 216 206 199 203 196 185 139 126 124 115 103 97 98 96 95 88 71 81 91 82 73 56 56 52 49 38 27 15 13 7 334 344 322 306 289 310 288 276 261 238 229 194 217 241 244 273 269 284 267 244 235 232 229 234
265 263 264 269 274 276 268 260 257 257 260 264 264 268 272 265 262 266 276 276 278 279 276 282 288 344 319 257 248 245 229 222 218 223 224 228 212 209 184 161 141 123 116 116 108 95 76 59 65 73 65 58 66 70 65 46 47 31 39 24 0 353 325 333 301 301 308 304 286 288 282 276 274 274 271 238 222 201 217 235 240 245 240 241 237 237 235
276 279 284 277 272 272 270 268 261 258 262 263 260 263 258 259 264 266 269 276 279 281 289 280 283 277 254 274 258 242 241 225 221 227 234 232 229 218 181 169 150 135 130 123 118 111 100 90 88 74 53 53 50 59 49 33 25 5 7 355 340 322 309 315 304 294 279 268 274 275 277 278 279 278 271 263 253 252 234 227 226 228 235 238 238 238 239
267 266 269 269 269 269 265 263 264 261 260 263 265 262 267 271 276 277 281 276 271 279 273 266 257 258 262 242 239 243 241 242 248 248 239 236 227 220 204 189 170 153 135 123 106 95 100 112 119 107 94 115 92 40 55 17 16 356 341 308 299 291 283 288 285 285 290 292 287 284 277 273 273 272 271 270 257 239 242 242 238 237 228 230 238 241 238
268 272 276 275 321 334 280 259 259 268 269 266 266 262 266 262 262 260 258 264 279 281 272 286 295 285 275 272 261 255 251 249 254 240 237 238 218 213 218 220 188 161 135 119 110 94 106 80 37 54 40 30 45 36 5 211 215 262 268 281 284 286 286 284 290 286 277 278 278 278 280 278 278 272 270 270 268 257 243 235 236 238 236 231 232 238 240
271 277 278 282 282 258 255 337 320 279 264 255 252 255 259 262 262 264 263 269 281 303 310 301 283 278 276 281 288 289 294 272 231 250 251 253 219 190 193 221 216 162 115 91 85 81 57 73 34 0 339 355 15 305 322 334 335 325 319 302 292 296 294 291 292 290 286 280 276 272 271 270 269 271 266 264 265 262 264 254 242 238 237 235 236 235 235
272 275 272 266 254 250 276 280 272 327 307 301 291 287 279 278 274 284 297 296 279 271 275 283 286 285 281 283 294 282 263 262 261 257 250 211 180 182 192 225 281 319 85 113 112 127 76 28 313 265 278 341 329 310 317 315 312 306 293 298 296 290 289 292 290 285 282 283 282 285 284 280 277 272 271 269 265 260 254 253 253 246 239 236 236 243 242
269 263 254 256 254 274 233 257 78 103 305 265 280 276 272 263 275 287 287 292 300 308 306 303 306 299 291 279 265 273 273 259 247 233 228 190 186 198 224 217 252 262 287 332 354 33 358 277 299 307 325 329 311 307 309 295 290 286 291 288 284 282 284 284 282 281 277 276 276 273 272 269 265 262 261 258 256 260 262 260 255 251 245 239 236 234 237
258 257 255 258 283 272 247 234 240 266 264 304 308 292 290 317 297 291 286 284 283 272 279 283 281 296 288 263 248 356 359 3 317 264 197 192 187 208 234 250 252 260 261 244 60 327 285 313 306 312 314 307 297 291 288 289 292 293 290 288 288 288 283 284 287 283 280 277 274 273 272 270 266 265 264 263 261 259 260 257 256 253 252 242 240 237 237
250 261 262 258 255 252 254 333 64 39 39 4 319 284 282 232 255 322 295 285 290 292 298 297 296 288 284 277 226 155 28 340 30 3 252 136 206 237 244 245 250 243 239 290 261 279 293 284 282 280 288 288 287 282 282 285 285 285 290 292 296 295 293 293 289 285 280 279 277 274 271 268 268 265 263 262 262 256 258 263 259 256 255 250 243 243 240
248 246 253 255 261 273 64 91 73 62 40 24 302 271 267 69 318 14 324 289 298 302 299 296 310 298 274 289 8 6 0 84 44 356 271 269 283 297 278 260 263 273 275 296 305 292 274 271 279 286 284 285 279 277 276 278 283 288 289 290 291 293 296 297 293 290 287 283 282 280 276 274 273 271 268 266 265 264 263 260 262 265 258 252 247 255 18
248 253 251 253 241 278 56 36 0 41 27 38 284 276 264 75 28 21 355 350 341 303 304 307 295 287 284 17 302 338 338 317 307 257 273 266 260 258 266 277 278 295 295 281 270 268 272 277 279 275 274 272 277 279 279 275 275 279 284 288 291 292 293 291 290 286 282 277 273 272 271 271 268 267 267 266 265 266 268 265 265 260 259 266 226 111 103
244 243 251 260 259 99 47 38 347 349 332 312 271 259 357 44 332 326 315 318 334 323 309 298 284 290 305 349 152 236 250 272 282 282 268 273 280 274 274 281 337 290 287 287 290 291 286 278 274 273 274 275 275 274 274 274 272 275 279 283 287 289 288 286 284 283 282 279 277 274 274 270 268 266 266 266 264 261 261 263 263 264 27 76 96 104 98
246 253 263 255 273 28 330 342 334 8 264 253 263 21 269 276 310 301 304 299 295 292 294 296 293 301 305 302 300 295 288 279 277 287 289 286 283 289 294 298 284 278 278 281 277 271 272 282 284 281 279 280 281 280 279 278 281 281 281 279 281 283 282 282 281 280 279 277 275 273 273 276 274 272 268 266 264 266 263 261 250 66 106 104 104 101 100
258 254 260 261 259 72 355 8 296 317 266 329 12 307 317 320 300 299 298 297 293 294 296 299 303 300 293 290 293 294 289 287 281 274 275 278 283 286 290 291 291 294 290 284 282 284 281 275 273 275 278 278 278 278 274 276 279 278 280 283 283 283 283 282 282 280 278 274 269 268 264 262 268 268 272 272 270 266 264 243 211 183 125 117 117 113 113
263 253 245 264 17 147 297 354 318 345 309 319 318 321 295 301 298 296 302 292 292 291 287 285 283 282 285 289 292 291 293 292 291 291 290 287 284 286 282 284 288 289 287 284 282 283 286 288 286 283 282 281 281 281 281 285 282 280 278 276 276 275 276 276 276 276 275 271 265 258 264 269 267 265 263 259 262 266 238 210 182 170 163 131 126 126 127
287 279 298 337 247 298 301 294 306 294 296 294 297 294 291 297 302 303 292 299 304 300 296 295 295 292 287 285 282 278 278 286 293 289 285 283 284 285 286 286 288 285 281 282 283 284 285 286 284 280 277 278 282 281 283 284 280 278 276 276 277 278 278 280 281 280 276 274 272 271 272 270 268 264 259 257 256 233 192 165 172 170 170 145 139 136 134
288 277 276 288 291 295 311 314 300 296 288 290 291 292 289 283 278 279 285 290 292 290 289 289 286 284 287 285 285 286 285 278 271 270 273 273 271 277 284 284 280 281 287 288 287 283 280 280 282 283 283 281 281 282 283 279 278 279 278 280 281 281 284 283 281 279 278 279 277 272 268 264 261 260 264 261 239 186 175 171 174 171 156 144 142 141 144
294 281 301 294 304 307 292 295 296 294 295 293 294 291 295 303 312 306 301 296 293 292 289 283 282 282 283 281 280 279 274 271 274 280 282 283 285 282 279 283 289 285 282 285 287 289 288 286 285 284 284 282 281 282 283 285 282 281 282 280 280 280 278 277 273 273 272 269 270 271 267 263 263 256 235 182 160 169 174 171 169 168 153 147 146 145 141
268 275 289 294 293 291 296 297 296 293 300 305 306 307 301 295 292 291 290 292 289 289 286 288 289 287 283 281 280 280 280 282 283 280 279 279 278 280 280 279 284 286 287 287 289 290 290 292 289 282 279 278 282 284 283 281 280 279 279 279 275 274 274 274 276 273 271 267 265 266 268 271 230 166 168 174 159 149 158 164 167 161 160 146 136 140 150
290 290 280 293 328 312 292 287 293 300 300 303 302 299 299 297 294 292 289 283 283 281 281 283 281 281 282 282 281 277 279 279 278 278 278 281 282 283 283 286 288 288 288 284 283 281 280 280 281 282 280 281 282 281 284 289 298 293 285 282 279 277 278 275 269 268 268 273 272 245 179 140 90 92 141 109 92 101 95 109 112 116 116 117 128 135 147
280 293 317 341 313 303 300 301 303 305 307 304 300 298 295 293 291 291 289 289 292 292 290 290 288 286 285 280 278 279 279 277 278 278 280 280 280 282 284 284 280 278 278 281 283 285 285 285 283 283 286 285 287 301 312 306 293 286 284 281 279 276 275 275 272 264 253 225 173 155 140 119 99 67 37 61 99 106 80 67 78 71 76 115 123 121 82
304 314 312 308 302 293 296 305 309 310 307 303 303 302 300 301 303 304 305 303 298 294 291 285 283 280 279 283 283 280 277 274 273 276 277 278 279 279 278 278 278 277 279 281 282 283 284 285 283 283 284 291 311 317 316 308 301 293 287 283 282 281 278 264 269 254 181 161 149 144 132 126 119 105 100 61 51 62 85 88 79 75 72 70 67 71 89
290 295 302 307 305 300 303 304 302 300 305 305 302 304 307 309 308 307 303 300 300 298 295 293 290 290 288 284 283 284 284 280 278 274 273 276 278 281 283 283 285 285 285 285 284 284 285 282 282 286 290 312 336 335 355 329 317 312 304 284 254 220 164 129 96 93 101 110 117 123 129 128 115 115 106 98 73 46 53 65 65 72 78 76 75 74 77
300 304 301 301 302 302 302 302 305 307 307 311 312 311 310 308 306 306 303 301 298 298 297 295 295 293 291 288 283 278 276 279 284 285 289 288 283 280 280 280 279 279 279 279 279 280 281 285 288 289 294 337 4 66 66 41 49 62 80 119 114 104 95 94 91 89 98 104 110 116 115 112 116 119 117 116 113 104 61 56 63 64 67 76 81 84 83
316 315 312 306 305 302 304 307 303 314 320 316 309 307 309 309 309 308 302 300 298 296 294 293 292 291 287 286 284 279 274 271 272 281 286 287 288 288 288 289 290 289 285 282 280 280 280 280 285 297 313 106 111 108 99 94 92 93 82 88 106 116 116 112 112 115 112 110 109 108 108 116 123 121 118 114 113 111 111 106 73 56 52 61 84 87 81
316 314 310 307 304 306 313 313 311 317 315 313 310 309 307 306 306 302 299 295 293 293 291 289 286 283 280 280 279 276 281 289 289 288 286 285 285 286 287 286 285 288 285 284 279 275 275 280 280 276 192 141 139 123 109 101 93 85 78 85 89 59 63 95 97 94 95 98 105 114 117 120 116 111 109 114 116 119 123 124 123 130 138 127 83 60 106
324 323 327 316 311 312 315 315 315 315 313 310 308 306 307 308 305 305 304 301 296 295 292 294 307 314 315 317 316 312 309 301 291 293 293 292 299 304 306 302 295 290 281 274 272 273 273 266 255 231 142 149 140 122 112 110 103 98 88 70 89 101 97 102 112 121 125 130 129 124 123 116 111 106 116 125 131 127 129 129 137 143 144 145 151 102 102
329 324 319 308 305 306 308 309 308 308 305 304 311 315 313 316 317 313 309 317 334 341 340 338 336 330 330 329 331 328 330 326 321 318 315 309 302 298 298 297 292 285 280 275 270 264 259 255 244 161 138 148 142 127 122 121 132 133 136 134 137 166 161 156 147 144 137 136 138 129 119 120 126 136 137 132 123 131 131 142 144 152 143 141 151 157 192
321 317 314 312 311 310 307 305 309 311 310 315 323 333 343 338 328 324 331 339 339 341 339 335 337 336 339 333 333 329 321 313 307 301 298 296 291 288 287 288 289 284 278 271 264 257 249 240 217 155 147 154 148 134 148 150 147 143 118 92 80 342 115 110 127 127 136 125 108 115 135 133 126 127 136 131 146 147 154 148 166 157 154 153 173 183 183
319 317 314 310 308 308 308 320 328 325 328 336 351 346 347 346 333 332 335 335 337 338 339 337 337 339 340 336 329 321 311 305 307 308 307 305 309 307 306 300 287 278 272 271 262 248 233 220 176 152 147 148 140 149 146 121 137 130 155 152 114 37 38 17 355 119 124 123 139 146 141 143 139 138 132 144 159 150 144 145 163 157 156 151 155 81 80
316 320 322 325 328 328 328 341 339 342 355 2 353 349 344 341 341 338 339 340 341 341 341 345 346 347 347 343 342 336 332 336 352 354 348 342 339 341 336 324 302 288 282 286 264 249 233 181 159 142 143 137 131 134 104 86 141 144 117 102 124 135 61 320 231 229 128 143 142 132 132 131 128 131 146 159 152 136 134 134 134 143 123 94 66 64 49
326 324 326 338 336 331 336 349 347 345 357 356 1 358 0 0 355 353 353 353 357 1 2 359 358 358 1 5 5 4 356 353 10 9 3 358 360 358 351 356 4 6 16 1 1 234 194 143 135 135 140 128 126 133 150 138 100 91 96 91 96 66 77 37 39 115 128 138 136 130 128 126 135 118 89 85 116 138 123 116 124 90 45 63 77 72 60
324 316 317 319 319 330 338 347 350 347 359 28 27 23 18 14 10 12 9 9 14 14 16 11 5 360 357 357 1 10 24 28 24 14 9 2 0 354 349 350 359 34 40 29 29 26 65 115 123 128 105 95 99 120 114 95 75 75 79 105 107 117 125 139 164 141 141 142 103 99 111 89 73 74 110 106 63 49 57 50 51 36 46 47 86 94 97
322 320 322 343 14 14 7 357 355 17 34 40 36 29 21 17 15 14 12 15 15 10 3 358 355 352 356 357 5 14 24 31 25 19 11 3 350 347 346 336 324 39 44 34 29 27 43 64 73 72 68 62 53 53 66 69 79 77 83 91 107 147 156 169 175 164 143 134 121 107 81 83 77 66 57 65 81 77 65 51 46 39 46 44 57 84 102
336 336 353 26 21 19 48 51 49 44 46 43 36 31 28 25 22 17 12 10 8 9 7 1 355 354 1 6 9 12 19 22 25 24 16 3 353 347 350 360 22 44 49 40 26 25 38 55 62 68 68 57 57 42 21 26 74 73 82 83 96 128 155 172 173 165 131 89 64 68 69 69 60 54 57 69 62 64 67 64 51 51 50 46 44 26 25
9 14 37 42 48 94 79 65 54 50 48 43 37 28 27 29 23 19 11 5 1 0 359 358 358 0 0 360 4 12 18 15 13 17 18 8 360 3 359 18 36 41 44 42 13 18 39 46 56 64 62 57 51 38 24 17 43 23 80 101 117 112 136 167 154 139 101 94 97 99 114 103 86 77 63 61 61 54 48 53 53 52 55 48 46 22 348
22 41 80 98 99 77 60 48 36 35 39 46 43 36 27 27 25 23 18 8 0 351 347 345 348 343 353 356 5 10 11 11 10 8 9 19 6 343 36 44 38 38 45 31 10 33 39 38 47 53 53 50 38 30 17 10 2 10 51 79 81 81 138 165 148 143 124 104 96 86 74 72 78 74 69 66 65 56 47 47 41 26 46 36 40 47 355
75 107 111 115 98 77 63 52 41 24 18 33 35 36 33 29 30 31 29 20 12 0 353 345 338 3 16 19 20 18 14 8 3 0 0 14 29 47 49 41 40 39 39 25 32 36 32 38 51 51 48 44 40 30 16 9 8 28 78 91 81 86 75 73 69 61 55 56 60 72 76 68 68 68 66 64 68 81 77 61 42 26 23 37 0 37 359
107 122 110 87 69 58 54 46 37 17 11 31 40 43 42 33 19 23 25 29 33 28 11 1 11 20 17 18 21 28 26 22 15 10 7 10 26 37 45 39 30 30 30 32 39 38 35 39 50 53 48 42 38 41 33 21 25 26 47 74 76 76 73 76 78 77 83 92 99 90 83 77 71 69 66 68 69 60 60 80 64 40 39 30 22 25 20
125 128 119 101 83 66 57 45 39 39 27 13 16 27 25 22 26 25 25 26 35 47 41 23 16 21 19 19 23 30 36 36 32 27 23 21 28 32 37 35 19 15 22 34 40 42 41 44 45 48 45 48 40 24 51 43 43 39 40 50 58 63 67 67 71 75 74 69 65 75 82 87 83 79 76 69 60 57 57 49 45 37 41 37 41 32 20
139 137 123 108 93 82 64 67 68 36 10 24 30 32 36 31 27 27 24 20 19 25 40 48 39 25 27 28 30 28 33 38 45 44 40 37 30 32 39 37 23 16 6 30 41 45 46 46 40 37 29 14 15 351 3 57 58 53 47 42 49 61 72 75 74 72 70 72 75 77 76 76 76 77 73 70 63 58 52 47 48 34 23 17 16 16 23
155 162 151 138 123 103 102 92 83 62 43 38 41 40 37 33 30 29 28 28 23 17 19 25 34 42 42 39 40 36 31 27 36 49 57 55 49 42 41 37 31 18 4 42 41 50 45 43 27 25 4 0 347 332 4 74 63 64 67 65 59 57 64 65 71 75 72 70 66 67 65 70 69 70 66 60 60 52 46 48 40 34 29 24 20 18 13
172 186 173 154 146 144 133 97 102 94 76 55 46 46 39 37 29 32 31 29 26 23 17 19 18 26 41 46 45 44 39 32 32 32 41 48 48 44 37 35 32 23 10 33 45 46 47 41 26 1 357 358 357 354 50 75 83 78 74 69 68 64 65 66 67 68 69 70 73 74 73 68 64 60 58 61 62 60 52 44 41 40 33 32 28 23 17
195 197 198 199 170 189 197 195 114 87 88 87 60 38 35 37 38 30 26 29 27 22 22 21 25 21 20 34 54 56 53 53 47 38 43 42 45 39 28 32 31 33 22 17 48 46 49 34 4 357 356 352 356 21 56 58 59 60 66 68 69 68 68 65 63 62 63 67 68 68 65 66 69 69 71 64 59 57 52 51 52 47 42 36 31 23 20
197 200 207 222 225 204 222 227 128 166 133 134 122 109 45 38 44 43 34 28 35 31 30 27 27 27 23 17 30 74 85 67 61 66 68 61 64 60 48 43 44 42 38 35 42 38 38 10 2 358 352 344 345 54 64 63 62 60 60 60 59 60 61 62 61 61 55 51 51 58 68 71 68 63 62 62 63 63 59 53 53 43 39 33 29 21 12
201 206 204 210 220 226 230 224 205 205 202 212 194 123 92 62 31 40 41 36 36 39 41 43 36 32 30 31 24 20 32 68 72 56 69 81 93 88 91 89 73 60 59 56 50 50 26 12 1 356 358 3 27 50 51 55 59 64 62 62 59 63 61 62 61 64 63 69 74 76 70 64 68 77 75 71 65 58 59 53 47 41 37 30 26 23 17
203 213 220 214 216 216 226 219 210 218 224 239 86 127 148 130 87 73 57 46 45 51 50 52 52 44 34 35 39 36 23 20 56 59 47 63 72 71 53 31 19 163 134 93 78 48 21 8 3 355 350 7 58 58 54 46 44 48 53 56 54 52 51 51 53 58 63 60 55 53 55 64 67 64 63 62 60 53 51 53 49 38 35 30 30 22 18
192 197 214 221 216 215 218 215 219 234 228 148 182 146 128 144 155 166 150 211 212 105 87 74 67 71 75 56 43 45 48 39 42 54 46 42 50 55 62 62 27 11 62 76 80 70 41 9 11 3 22 33 47 51 55 56 55 53 52 53 60 56 55 53 48 50 57 59 61 61 67 63 58 59 65 62 61 54 50 51 51 41 28 28 36 28 29
192 196 204 214 212 208 211 217 221 225 187 175 203 153 154 220 225 118 71 59 45 337 36 52 53 56 49 60 64 63 55 55 71 73 62 47 43 44 56 47 43 37 36 46 61 69 89 54 46 41 43 53 52 52 54 56 58 56 59 56 56 62 54 52 64 54 52 58 59 63 66 61 63 72 63 55 46 46 43 36 41 122 216 241 46 34 34
191 195 201 205 210 215 218 218 221 211 172 193 205 142 184 241 66 76 67 347 231 128 84 98 73 67 64 62 60 67 88 97 73 43 62 84 78 58 32 56 56 33 37 44 51 52 54 44 32 33 55 60 59 54 52 54 60 62 61 61 57 52 59 55 53 56 50 35 35 45 47 63 63 49 48 54 52 55 61 57 36 34 34 39 36 32 40
210 208 193 186 202 216 212 211 224 199 186 195 199 185 205 238 142 174 127 118 289 85 88 93 96 71 59 84 77 66 49 35 53 87 60 47 65 100 101 66 62 61 45 46 48 50 53 65 63 43 34 44 52 62 66 57 61 61 61 59 65 67 42 22 24 33 39 30 24 38 49 34 16 28 47 39 44 60 58 52 39 43 43 40 44 32 25